Retour au catalogue

STARLINK-1152

ActifCommunicationsVLEO
NORAD 45096·PAYLOAD·🇺🇸 United States

Lancé Jan 29, 2020 depuis Cape Canaveral Space Force Station

Loading…

Prochains Passages (prochaines 24 heures)

TLE

FraisSource: CelesTrak SupGP

Époque: Sep 14, 2026, 21:21 UTC

1 45096C 20006BE  26257.89006944  .00059451  00000+0  71032-3 0  2570
2 45096  53.0273  18.9318 0001398  78.8090 189.4138 15.60348544    14

Suivez STARLINK-1152 en temps réel avec AllMySat

Download on the App Store